Tracking 29042 objects as of 20-Jun-2024
HD Live streaming from Space Station
objects crossing your sky now

FLOCK 1C 5

Track FLOCK 1C 5 now!
10-day predictions
FLOCK 1C 5 is classified as:


NORAD ID: 40038
Int'l Code: 2014-033AE
Perigee: 515.4 km
Apogee: 532.0 km
Inclination: 98.1 °
Period: 95.0 minutes
Semi major axis: 6894 km
RCS: Unknown
Launch date: June 19, 2014
Source: United States (US)
Launch site: Orenburg, Russia (OREN)
Your satellite tracking list
Your tracking list is empty




NASA's NSSDC Master Catalog

Two Line Element Set (TLE):
1 40038U 14033AE  24171.93327787  .00022522  00000-0  11567-2 0  9992
2 40038  98.0868 157.3546 0012017  91.3953 268.8655 15.16453792544059
Source of the keplerian elements: AFSPC